Regional Weather Roundup
Issued by NWS

Home | Current Version | Previous Version | Graphics & Text | Print | Product List | Glossary On
Versions: 1 2 3 4 5 6 7 8 9 10 11 12 13 14 15 16 17 18 19 20 21 22 23 24 25 26 27 28 29 30 31 32 33 34 35 36 37 38 39 40 41 42 43 44 45 46 47 48 49 50
205
ASUS45 KTFX 241610
RWRMT
MONTANA REGIONAL WEATHER ROUNDUP
NATIONAL WEATHER SERVICE GREAT FALLS MT
1000 AM MDT FRI MAR 24 2017

NOTE: "FAIR" INDICATES FEW OR NO CLOUDS BELOW 12000 FEET WITH NO
SIGNIFICANT WEATHER AND/OR OBSTRUCTIONS TO VISIBILITY.

MTZ001>007-043-241700-
WEST OF THE DIVIDE

CITY           SKY/WX    TMP DP  RH WIND       PRES   REMARKS
KALISPELL      PTSUNNY   34  26  72 SE5       29.96F
MISSOULA       CLOUDY    31  28  89 W3        30.00F
BUTTE          CLOUDY    33  24  69 VRB3      30.01F
MULLAN PASS    CLOUDY    26  24  92 VRB5      29.85F
ANACONDA         N/A     39  21  48 SE14      29.98F WCI  31
DEER LODGE       N/A     32  25  74 E3        30.01F
EUREKA           N/A     32  27  80 CALM      29.96F
HAMILTON         N/A     34  27  75 CALM      29.98F
RONAN            N/A     36  30  79 CALM      29.99F
$$

MTZ008-052>055-241700-
SOUTHWEST MONTANA

CITY           SKY/WX    TMP DP  RH WIND       PRES   REMARKS
BOZEMAN        SUNNY     38  26  62 CALM      30.05S
DILLON         SUNNY     39  23  52 SW3       30.02F
W YELLOWSTONE  SUNNY     32  21  64 CALM      30.18R
ENNIS          SUNNY     46  23  39 S24G31    30.08F
THREE FORKS      N/A     38  27  65 CALM      30.03F
$$

MTZ009-010-012-014-046-048-049-054-241700-
EAST SLOPES AND CENTRAL MONTANA

CITY           SKY/WX    TMP DP  RH WIND       PRES   REMARKS
CUT BANK       MOSUNNY   36  20  52 SE12      29.91F WCI  28
GREAT FALLS    CLOUDY    46  22  38 S12       29.95F
MALMSTROM AFB  SUNNY     43  25  48 SE3       29.96F
HELENA         SUNNY     36  25  64 CALM      30.01F
AUGUSTA          N/A     38  24  56 S13       29.93F WCI  30
BOWMANS CRNR     N/A     40  23  49 S21       29.92F
CHOTEAU          N/A     43  25  49 SW6       29.95S
CONRAD           N/A     38  32  79 SE5       29.96S
FAIRFIELD        N/A     43  23  44 S15G21    29.93F
POWER            N/A     40  25  54 S10       29.94F
RAYNESFORD       N/A     47  23  38 E7        29.96F
$$

MTZ011-013-016-021-045-047-050-051-241700-
NORTH CENTRAL MONTANA

CITY           SKY/WX    TMP DP  RH WIND       PRES   REMARKS
HAVRE          CLOUDY    39  28  64 CALM      30.00F
LEWISTOWN      SUNNY     47  27  45 E5        30.01F
N BAR RANCH      N/A     50  28  43 S17       30.05F
CHINOOK          N/A     37  27  65 NE5       30.00F
DENTON           N/A     42  28  58 SE13G18   29.96F
FORT BENTON      N/A     37  23  56 MISG      29.99F
GEYSER           N/A     43  21  42 CALM      29.97F
GRASS RANGE      N/A     53  29  39 S13G20    29.97F
STANFORD         N/A     48  21  33 S18       29.98F
WINIFRED         N/A     47  25  42 E8        30.00F
$$

MTZ017>020-022>027-061-062-241700-
NORTHEAST MONTANA

CITY           SKY/WX    TMP DP  RH WIND       PRES   REMARKS
GLASGOW        SUNNY     40  33  76 SE8       30.06S
JORDAN           N/A     46  32  58 CALM      30.04F
SIDNEY         SUNNY     41  35  79 S6        30.11R
WOLF POINT     SUNNY     39  33  79 E3        30.09S
MALTA          SUNNY     41  28  60 CALM      30.05S
PLENTYWOOD       N/A     36  36 100 S3        30.10R VSB 0
POPLAR           N/A     39  34  81 CALM      30.09S VSB 3/4
SCOBEY           N/A     39  30  70 N2        30.05S
$$

MTZ028>42-056>058-241700-
SOUTHCENTRAL AND SOUTHEAST MONTANA

CITY           SKY/WX    TMP DP  RH WIND       PRES   REMARKS
BAKER          SUNNY     46  34  62 NW5       30.11R
BILLINGS       MOSUNNY   42  33  70 SW13      30.06F
LIVINGSTON     SUNNY     42  24  49 SE6       30.04F
MILES CITY     SUNNY     44  37  76 S6        30.09F
BIG TIMBER     SUNNY     41  28  60 CALM      30.07F
FORSYTH          N/A     46  37  71 NE3       30.08F
HARLOWTON        N/A     39  24  55 CALM      30.04F
LAUREL           N/A     43  31  63 S8        30.04F
$$

REGIONAL REPORTS...DAKOTAS

CITY           SKY/WX    TMP DP  RH WIND       PRES   REMARKS
WILLISTON      SUNNY     40  30  67 SE7       30.12R
MINOT          CLOUDY    33  28  81 E10       30.16R WCI  25
DICKINSON      SUNNY     39  31  72 SE7       30.09R
BEACH            N/A    N/A N/A N/A MISG        N/A
TIOGA            N/A     32  32 100 E8        30.14R WCI  25
WATFORD CITY     N/A     39  30  70 SE10      30.12R
BISMARCK       MOSUNNY   36  31  82 E7        30.18R WCI  30
GRAND FORKS    MOSUNNY   34  29  82 N16       30.17R WCI  24
FARGO          CLOUDY    37  33  85 N16       30.14R WCI  28
BUFFALO SD       N/A     50  41  71 NW6       30.04R
RAPID CITY     SUNNY     52  36  54 NW9       30.11R
$$

REGIONAL REPORTS...WYOMING/IDAHO/WASHINGTON

CITY           SKY/WX    TMP DP  RH WIND       PRES   REMARKS
GILLETTE       SUNNY     48  36  63 CALM      30.14R
SHERIDAN       SUNNY     48  37  65 E5        30.10F
BUFFALO WY     SUNNY     49  33  54 SE8       30.13R
CODY           SUNNY     45  25  45 SW18      30.11F
YELLOWSTONE LA   N/A     24  20  84 CALM      30.20R
IDAHO FALLS    SUNNY     41  27  57 CALM      30.18R
SALMON         PTSUNNY   34  25  69 CALM      30.04F
BOISE          CLOUDY    50  27  40 SE17      30.00F
SPOKANE        LGT RAIN  38  35  89 NE5       29.87F
$$

REGIONAL REPORTS...ALBERTA

CITY           SKY/WX    TMP DP  RH WIND       PRES   REMARKS
EDMONTON       SUNNY     25  21  86 E10       29.86F WCI  15
CALGARY        CLOUDY    32  27  80 S9        29.81F FOG     WCI  24
LETHBRIDGE     CLOUDY    37  25  60 S8        29.90F WCI  31
MEDICINE HAT   PTSUNNY   34  30  86 SW6       29.95F WCI  29
WATERTON GATE    N/A     43  18  36 SW9         N/A
CARDSTON         N/A     41  25  52 SE3         N/A
MILK RIVER       N/A     39  25  56 S13         N/A  WCI  32
ONEFOUR          N/A     36  27  69 SE9         N/A  WCI  29
$$

REGIONAL REPORTS...SASKATCHEWAN

CITY           SKY/WX    TMP DP  RH WIND       PRES   REMARKS
SWIFT CURRENT  SUNNY     37  34  87 SE10      29.99S WCI  30
REGINA         MOSUNNY   34  28  80 SE13      30.12S WCI  25
SASKATOON      PTSUNNY   28  21  74 SE9       30.14S WCI  20
CYPRESS HILLS    N/A     36  23  60 S8          N/A  WCI  29
VAL MARIE        N/A     41  34  75 SW2         N/A
ASSINIBOIA       N/A     23  21  93 SE9         N/A  WCI  13
$$




USA.gov is the U.S. government's official web portal to all federal, state and local government web resources and services.